Perry, FL

2:35 PM EST on February 08, 2016 (GMT -0500)
Perry

Weather History for K40J - May, 2013

Change the Weather History Date:

Saturday, May 18, 2013

  Actual Average (KCTY) Record (KCTY)
Temperature  
Mean Temperature 73 °F 75 °F  
Max Temperature 88 °F 88 °F 93 °F (1998)
Min Temperature 60 °F 62 °F 46 °F (2011)
Degree Days  
Heating Degree Days 0 0  
Month to date heating degree days 0  
Since 1 July heating degree days 1303  
Cooling Degree Days 8 10  
Month to date cooling degree days 142  
Year to date cooling degree days 324  
Growing Degree Days 23 (Base 50)    
Moisture  
Dew Point 63 °F    
Average Humidity 73    
Maximum Humidity 100    
Minimum Humidity 43    
Precipitation  
Precipitation 0.08 in 0.07 in 0.37 in (2008)
Month to date precipitation 1.27  
Year to date precipitation 15.75  
Sea Level Pressure  
Sea Level Pressure 30.09 in    
Wind  
Wind Speed 2 mph (WSW)    
Max Wind Speed 9 mph    
Max Gust Speed -    
Visibility 8 miles    
Events Fog    
T = Trace of Precipitation, MM = Missing Value Source: NWS Daily Summary

Daily Weather History Graph

Daily Weather History Graph

Search for Another Location

Airport or City:

Trip Planner

Search our weather history database for the weather conditions in past years. The results will help you decide how hot, cold, wet, or windy it might be!

Date:

Astronomy

May. 18, 2013 Rise Set
Actual Time 6:38 AM EDT 8:22 PM EDT
Civil Twilight 6:12 AM EDT 8:49 PM EDT
Nautical Twilight 5:40 AM EDT 9:21 PM EDT
Astronomical Twilight 5:07 AM EDT 9:54 PM EDT
Moon 1:53 PM EDT (5/18) 2:00 AM EDT (5/18)
Length of Visible Light 14h 36m
Length of Day
13h 44m
First Quarter, 55% of the Moon is Illuminated
May 18
First Quarter
May 25
Full
May 31
Last Quarter
Jun 8
New
Jun 16
First Quarter

Hourly Weather History & Observations

Time (EDT) Temp. Heat Index Dew Point Humidity Pressure Visibility Wind Dir Wind Speed Gust Speed Precip Events Conditions
12:15 AM 64.4 °F - 62.6 °F 94% 30.09 in 7.0 mi Calm Calm - N/A   Clear
12:35 AM 64.4 °F - 62.6 °F 94% 30.09 in 7.0 mi Calm Calm - N/A   Clear
12:53 AM 68.0 °F - 64.0 °F 87% 30.08 in - East 3.5 mph - 0.01 in   Unknown
12:55 AM 64.4 °F - 64.4 °F 100% 30.10 in 10.0 mi East 3.5 mph - N/A   Clear
1:15 AM 64.4 °F - 62.6 °F 94% 30.10 in 5.0 mi Calm Calm - N/A   Clear
1:35 AM 62.6 °F - 62.6 °F 100% 30.09 in 5.0 mi Calm Calm - N/A   Clear
1:53 AM 66.0 °F - 62.1 °F 87% 30.08 in - Calm Calm - 0.02 in   Unknown
1:55 AM 64.4 °F - 62.6 °F 94% 30.09 in 5.0 mi Calm Calm - N/A   Clear
2:15 AM 64.4 °F - 62.6 °F 94% 30.09 in 4.0 mi Calm Calm - N/A   Clear
2:35 AM 64.4 °F - 62.6 °F 94% 30.09 in 7.0 mi Calm Calm - N/A   Clear
2:53 AM 64.9 °F - 62.1 °F 90% 30.07 in - ESE 3.5 mph - N/A   Unknown
2:55 AM 62.6 °F - 62.6 °F 100% 30.09 in 5.0 mi ESE 3.5 mph - N/A   Clear
3:15 AM 64.4 °F - 62.6 °F 94% 30.09 in 7.0 mi Calm Calm - N/A   Clear
3:35 AM 62.6 °F - 62.6 °F 100% 30.08 in 0.2 mi Calm Calm - N/A Fog Fog
3:53 AM 63.0 °F - 61.0 °F 93% 30.07 in - Calm Calm - N/A   Unknown
3:55 AM 62.6 °F - 62.6 °F 100% 30.08 in 0.5 mi Calm Calm - N/A Fog Fog
4:15 AM 60.8 °F - 60.8 °F 100% 30.08 in 1.5 mi Calm Calm - N/A   Mist
4:35 AM 62.6 °F - 62.6 °F 100% 30.08 in 2.0 mi Calm Calm - N/A   Clear
4:53 AM 64.0 °F - 61.0 °F 90% 30.06 in - Calm Calm - 0.02 in   Unknown
4:55 AM 62.6 °F - 62.6 °F 100% 30.08 in 1.0 mi Calm Calm - N/A   Mist
5:15 AM 60.8 °F - 60.8 °F 100% 30.08 in 0.2 mi Calm Calm - N/A Fog Fog
5:35 AM 60.8 °F - 59.0 °F 94% 30.09 in 0.2 mi Calm Calm - N/A Fog Fog
5:53 AM 62.1 °F - 61.0 °F 96% 30.09 in - Calm Calm - 0.01 in   Unknown
5:55 AM 60.8 °F - 60.8 °F 100% 30.10 in 0.5 mi Calm Calm - N/A Fog Fog
6:15 AM 60.8 °F - 60.8 °F 100% 30.10 in 0.8 mi Calm Calm - N/A   Mostly Cloudy
6:35 AM 60.8 °F - 59.0 °F 94% 30.11 in 0.2 mi Calm Calm - N/A Fog Fog
6:53 AM 61.0 °F - 59.0 °F 93% 30.10 in - Calm Calm - N/A   Unknown
6:55 AM 60.8 °F - 59.0 °F 94% 30.11 in 1.0 mi Calm Calm - N/A   Mist
7:15 AM 60.8 °F - 60.8 °F 100% 30.11 in 1.2 mi Calm Calm - N/A   Mist
7:35 AM 60.8 °F - 60.8 °F 100% 30.12 in 1.8 mi Calm Calm - N/A   Mist
7:53 AM 66.0 °F - 64.0 °F 93% 30.11 in - Calm Calm - N/A   Unknown
7:55 AM 64.4 °F - 62.6 °F 94% 30.12 in 2.0 mi Calm Calm - N/A   Clear
8:15 AM 66.2 °F - 64.4 °F 94% 30.13 in 4.0 mi Calm Calm - N/A   Clear
8:35 AM 68.0 °F - 68.0 °F 100% 30.13 in 7.0 mi Calm Calm - N/A   Clear
8:53 AM 75.0 °F - 66.9 °F 76% 30.13 in - Calm Calm - 0.01 in   Unknown
8:55 AM 69.8 °F - 68.0 °F 94% 30.14 in 10.0 mi Calm Calm - N/A   Clear
9:15 AM 71.6 °F - 68.0 °F 88% 30.14 in 10.0 mi Calm Calm - N/A   Clear
9:35 AM 73.4 °F - 68.0 °F 83% 30.14 in 10.0 mi Calm Calm - N/A   Clear
9:53 AM 79.0 °F - 66.0 °F 64% 30.12 in - Calm Calm - N/A   Unknown
9:55 AM 77.0 °F - 66.2 °F 69% 30.14 in 10.0 mi Calm Calm - N/A   Clear
10:15 AM 77.0 °F - 64.4 °F 65% 30.13 in 10.0 mi Calm Calm - N/A   Clear
10:35 AM 77.0 °F - 64.4 °F 65% 30.13 in 10.0 mi West 4.6 mph - N/A   Clear
10:53 AM 81.0 °F 83.3 °F 66.9 °F 62% 30.12 in - WSW 4.6 mph - N/A   Unknown
10:55 AM 78.8 °F - 64.4 °F 61% 30.13 in 10.0 mi SW 4.6 mph - N/A   Clear
11:15 AM 78.8 °F - 64.4 °F 61% 30.13 in 10.0 mi WSW 3.5 mph - N/A   Clear
11:35 AM 78.8 °F - 64.4 °F 61% 30.13 in 10.0 mi West 4.6 mph - N/A   Clear
11:53 AM 82.9 °F 84.6 °F 64.9 °F 54% 30.12 in - SW 4.6 mph - N/A   Unknown
11:55 AM 80.6 °F 82.3 °F 64.4 °F 58% 30.13 in 10.0 mi SW 4.6 mph - N/A   Clear
12:15 PM 82.4 °F 83.4 °F 62.6 °F 51% 30.13 in 10.0 mi NNW 3.5 mph - N/A   Scattered Clouds
12:35 PM 82.4 °F 83.4 °F 62.6 °F 51% 30.13 in 10.0 mi SW 3.5 mph - N/A   Scattered Clouds
12:53 PM 86.0 °F 87.6 °F 64.9 °F 49% 30.10 in - Calm Calm - N/A   Unknown
12:55 PM 82.4 °F 83.4 °F 62.6 °F 51% 30.12 in 10.0 mi Calm Calm - N/A   Clear
1:15 PM 84.2 °F 85.0 °F 62.6 °F 48% 30.11 in 10.0 mi Calm Calm - N/A   Scattered Clouds
1:35 PM 82.4 °F 82.9 °F 60.8 °F 48% 30.11 in 10.0 mi SSW 5.8 mph - N/A   Scattered Clouds
1:53 PM 86.0 °F 86.8 °F 63.0 °F 46% 30.09 in - Variable 3.5 mph - N/A   Unknown
1:55 PM 82.4 °F 82.9 °F 60.8 °F 48% 30.10 in 10.0 mi SW 4.6 mph - N/A   Mostly Cloudy
2:15 PM 86.0 °F 86.1 °F 60.8 °F 43% 30.10 in 10.0 mi South 3.5 mph - N/A   Mostly Cloudy
2:35 PM 82.4 °F 82.9 °F 60.8 °F 48% 30.09 in 10.0 mi WSW 3.5 mph - N/A   Mostly Cloudy
2:53 PM 86.0 °F 87.3 °F 64.0 °F 48% 30.07 in - Calm Calm - N/A   Unknown
2:55 PM 82.4 °F 83.4 °F 62.6 °F 51% 30.08 in 10.0 mi Calm Calm - N/A   Mostly Cloudy
3:15 PM 82.4 °F 83.4 °F 62.6 °F 51% 30.08 in 10.0 mi WSW 6.9 mph - N/A   Scattered Clouds
3:35 PM 86.0 °F 86.6 °F 62.6 °F 45% 30.08 in 10.0 mi WSW 9.2 mph - N/A   Scattered Clouds
3:53 PM 86.0 °F 86.8 °F 63.0 °F 46% 30.06 in - West 4.6 mph - N/A   Unknown
3:55 PM 84.2 °F 84.4 °F 60.8 °F 45% 30.08 in 10.0 mi West 4.6 mph - N/A   Clear
4:15 PM 86.0 °F 86.1 °F 60.8 °F 43% 30.07 in 10.0 mi West 9.2 mph - N/A   Scattered Clouds
4:35 PM 86.0 °F 86.1 °F 60.8 °F 43% 30.07 in 10.0 mi WSW 3.5 mph - N/A   Scattered Clouds
4:53 PM 84.9 °F 85.4 °F 62.1 °F 46% 30.04 in - SW 3.5 mph - N/A   Unknown
4:55 PM 82.4 °F 82.9 °F 60.8 °F 48% 30.05 in 10.0 mi SSW 3.5 mph - N/A   Clear
5:15 PM 84.2 °F 84.4 °F 60.8 °F 45% 30.04 in 10.0 mi SSW 6.9 mph - N/A   Clear
5:35 PM 82.4 °F 82.9 °F 60.8 °F 48% 30.03 in 10.0 mi SSW 6.9 mph - N/A   Clear
5:53 PM 84.9 °F 85.4 °F 62.1 °F 46% 30.03 in - SW 9.2 mph - N/A   Unknown
5:55 PM 82.4 °F 82.9 °F 60.8 °F 48% 30.04 in 10.0 mi SW 8.1 mph - N/A   Clear
6:15 PM 82.4 °F 82.9 °F 60.8 °F 48% 30.04 in 10.0 mi WSW 8.1 mph - N/A   Clear
6:35 PM 80.6 °F 81.5 °F 60.8 °F 51% 30.04 in 10.0 mi WSW 6.9 mph - N/A   Clear
6:53 PM 82.9 °F 83.7 °F 62.1 °F 49% 30.03 in - West 8.1 mph - N/A   Unknown
6:55 PM 80.6 °F 81.5 °F 60.8 °F 51% 30.05 in 10.0 mi West 8.1 mph - N/A   Clear
7:15 PM 80.6 °F 81.5 °F 60.8 °F 51% 30.04 in 10.0 mi West 6.9 mph - N/A   Clear
7:35 PM 78.8 °F - 60.8 °F 54% 30.05 in 10.0 mi WNW 5.8 mph - N/A   Clear
7:53 PM 79.0 °F - 63.0 °F 58% 30.04 in - West 4.6 mph - N/A   Unknown
7:55 PM 77.0 °F - 62.6 °F 61% 30.05 in 10.0 mi West 4.6 mph - N/A   Clear
8:15 PM 75.2 °F - 62.6 °F 65% 30.05 in 10.0 mi West 4.6 mph - N/A   Clear
8:35 PM 73.4 °F - 62.6 °F 69% 30.06 in 10.0 mi West 3.5 mph - N/A   Clear
8:53 PM 75.0 °F - 64.0 °F 69% 30.05 in - Calm Calm - 0.01 in   Unknown
8:55 PM 73.4 °F - 62.6 °F 69% 30.06 in 10.0 mi Calm Calm - N/A   Clear
9:15 PM 73.4 °F - 62.6 °F 69% 30.06 in 10.0 mi Calm Calm - N/A   Clear
9:35 PM 71.6 °F - 62.6 °F 73% 30.06 in 10.0 mi Calm Calm - N/A   Clear
9:53 PM 70.0 °F - 63.0 °F 78% 30.06 in - Calm Calm - N/A   Unknown
9:55 PM 69.8 °F - 62.6 °F 78% 30.07 in 10.0 mi Calm Calm - N/A   Scattered Clouds
10:15 PM 69.8 °F - 64.4 °F 83% 30.08 in 10.0 mi Calm Calm - N/A   Scattered Clouds
10:35 PM 68.0 °F - 64.4 °F 88% 30.08 in 10.0 mi Calm Calm - N/A   Mostly Cloudy
10:53 PM 69.1 °F - 63.0 °F 81% 30.07 in - Calm Calm - N/A   Unknown
10:55 PM 68.0 °F - 62.6 °F 83% 30.08 in 10.0 mi Calm Calm - N/A   Scattered Clouds
11:15 PM 68.0 °F - 62.6 °F 83% 30.08 in 10.0 mi Calm Calm - N/A   Scattered Clouds
11:35 PM 68.0 °F - 62.6 °F 83% 30.08 in 10.0 mi Calm Calm - N/A   Clear
11:53 PM 71.1 °F - 63.0 °F 75% 30.07 in - NE 3.5 mph - N/A   Unknown
11:55 PM 69.8 °F - 62.6 °F 78% 30.08 in 4.0 mi Calm Calm - N/A   Haze